TimeCST,TemperatureF,Dew PointF,Humidity,Sea Level PressureIn,VisibilityMPH,Wind Direction,Wind SpeedMPH,Gust SpeedMPH,PrecipitationIn,Events,Conditions,WindDirDegrees,DateUTC
12:53 AM,28.0,18.0,66,30.21,10.0,South,5.8,-,N/A,,Clear,180,2013-02-02 06:53:00
1:53 AM,27.0,18.0,69,30.20,10.0,South,5.8,-,N/A,,Clear,180,2013-02-02 07:53:00
3:53 AM,25.0,18.0,75,30.18,10.0,Calm,Calm,-,N/A,,Clear,0,2013-02-02 09:53:00
4:53 AM,25.0,18.0,75,30.18,10.0,Calm,Calm,-,N/A,,Clear,0,2013-02-02 10:53:00
6:53 AM,24.1,18.0,77,30.20,10.0,Calm,Calm,-,N/A,,Clear,0,2013-02-02 12:53:00
7:53 AM,28.0,19.9,72,30.21,10.0,SW,5.8,-,N/A,,Clear,220,2013-02-02 13:53:00
8:53 AM,34.0,24.1,67,30.22,10.0,WSW,3.5,-,N/A,,Mostly Cloudy,250,2013-02-02 14:53:00
9:53 AM,39.0,25.0,57,30.24,10.0,West,9.2,-,N/A,,Mostly Cloudy,270,2013-02-02 15:53:00
10:53 AM,43.0,26.1,51,30.27,10.0,NNW,11.5,-,N/A,,Clear,330,2013-02-02 16:53:00
11:53 AM,45.0,28.0,52,30.25,10.0,Calm,Calm,-,N/A,,Clear,0,2013-02-02 17:53:00
12:53 PM,48.9,28.9,46,30.22,10.0,WSW,4.6,-,N/A,,Clear,250,2013-02-02 18:53:00
1:53 PM,52.0,28.9,41,30.21,10.0,NW,9.2,-,N/A,,Clear,320,2013-02-02 19:53:00
2:53 PM,51.1,28.9,43,30.20,10.0,WNW,10.4,-,N/A,,Clear,290,2013-02-02 20:53:00
3:53 PM,51.1,28.9,43,30.21,10.0,West,11.5,-,N/A,,Clear,280,2013-02-02 21:53:00
4:53 PM,50.0,30.0,46,30.23,10.0,WNW,8.1,-,N/A,,Clear,290,2013-02-02 22:53:00
5:53 PM,43.0,30.0,60,30.24,10.0,West,5.8,-,N/A,,Clear,260,2013-02-02 23:53:00
6:53 PM,42.1,28.9,60,30.24,10.0,SW,4.6,-,N/A,,Clear,230,2013-02-03 00:53:00
7:53 PM,42.1,30.0,62,30.23,10.0,SW,8.1,-,N/A,,Clear,230,2013-02-03 01:53:00
8:53 PM,41.0,28.9,62,30.22,10.0,SW,8.1,-,N/A,,Clear,230,2013-02-03 02:53:00
9:53 PM,39.0,28.9,67,30.22,10.0,WSW,8.1,-,N/A,,Clear,240,2013-02-03 03:53:00
11:53 PM,37.9,30.0,73,30.22,10.0,WSW,6.9,-,N/A,,Clear,240,2013-02-03 05:53:00